Regional Weather Roundup
Issued by NWS

Home | Current Version | Previous Version | Graphics & Text | Print | Product List | Glossary On
Versions: 1 2 3 4 5 6 7 8 9 10 11 12 13 14 15 16 17 18 19 20 21 22 23 24 25 26 27 28 29 30 31 32 33 34 35 36 37 38 39 40 41 42 43 44 45 46 47 48 49 50
000
ASUS43 KMKX 031400
RWRWI

WISCONSIN REGIONAL WEATHER ROUNDUP
NATIONAL WEATHER SERVICE MILWAUKEE/SULLIVAN WI
900 AM CDT MON AUG 03 2015

NOTE: "FAIR" INDICATES FEW OR NO CLOUDS BELOW 12,000 FEET WITH NO
SIGNIFICANT WEATHER AND/OR OBSTRUCTIONS TO VISIBILITY.

WIZ001-002-006>008-014>016-023>028-031500-
NORTHWEST WISCONSIN

CITY           SKY/WX    TMP DP  RH WIND       PRES   REMARKS
SUPERIOR ARPT  SUNNY     64  53  66 NW14G21   29.81S
ASHLAND        MOSUNNY   64  52  64 W9G17     29.80R
HAYWARD        SUNNY     63  49  60 NW7       29.84S
SIREN          SUNNY     63  50  61 NW9       29.87R
CUMBERLAND     MOSUNNY   63  46  55 W12       29.86S
RICE LAKE      CLOUDY    60  52  74 CALM      29.88R
CHETEK         CLOUDY    64  51  62 W8        29.86R
LADYSMITH      CLOUDY    62  51  67 W8        29.86R
EAU CLAIRE     SUNNY     67  52  58 W8        29.86R
MENOMONIE      SUNNY     66  52  60 W10       29.87R
NEW RICHMOND   SUNNY     64  54  69 W6        29.89R
OSCEOLA        SUNNY     64  54  68 W8        29.91S
$$

WIZ003>005-009-010-017-018-031500-
NORTH CENTRAL WISCONSIN

CITY           SKY/WX    TMP DP  RH WIND       PRES   REMARKS
MANITOWISH WTR CLOUDY    58  50  74 W8        29.80R
ARBOR VITAE    CLOUDY    60  51  73 NW6       29.81R
WOODRUFF       CLOUDY    60  51  73 NW6       29.81R
RHINELANDER    SUNNY     63  52  67 W9        29.82R
EAGLE RIVER    CLOUDY    60  49  66 W9        29.79S
LAND O LAKES   CLOUDY    61  50  67 W6        29.79S
PHILLIPS       CLOUDY    58  50  74 W5        29.82S
TOMAHAWK       SUNNY     59  50  71 W6        29.82S
MEDFORD        PTSUNNY   61  50  65 NW12      29.84S
MERRILL        NOT AVBL
$$

WIZ029-030-035-036-043>047-031500-
CENTRAL WISCONSIN

CITY           SKY/WX    TMP DP  RH WIND       PRES   REMARKS
WAUSAU         SUNNY     64  49  57 W10       29.82R
MOSINEE        NOT AVBL
MARSHFIELD     SUNNY     66  48  52 NW12      29.85R
STEVENS POINT  SUNNY     62  49  61 NW8       29.84S
WAUPACA        SUNNY     68  52  56 W9        29.83R
WAUTOMA        NOT AVBL
WISC RAPIDS    SUNNY     67  47  48 NW10      29.86R
CAMP DOUGLAS   NOT AVBL
$$

WIZ011>013-019>022-031-037>040-048>050-031500-
NORTHEAST WISCONSIN

CITY           SKY/WX    TMP DP  RH WIND       PRES   REMARKS
ANTIGO         MOSUNNY   61  53  74 W8        29.82R
SHAWANO        SUNNY     64  55  72 W5        29.80S
OCONTO         SUNNY     64  56  75 W6        29.78R
STURGEON BAY   PTSUNNY   64  52  63 W8        29.80S
GREEN BAY      SUNNY     66  57  72 W10       29.80R
MANITOWOC      NOT AVBL
APPLETON       MOSUNNY   64  52  63 W10       29.82R
CLINTONVILLE   SUNNY     63  52  67 W9        29.81R
OSHKOSH        SUNNY     66  55  67 W10       29.82R
$$

WIZ032>034-041-042-053>061-031500-
SOUTHWEST WISCONSIN

CITY           SKY/WX    TMP DP  RH WIND       PRES   REMARKS
LA CROSSE      SUNNY     71  53  52 W3        29.88S
SPARTA         SUNNY     67  51  56 W5        29.88R
VIROQUA        SUNNY     66  55  68 W5        29.90S
BOSCOBEL       SUNNY     70  58  65 CALM      29.89S
PRAIRIE DU CHI SUNNY     67  55  64 CALM      29.90R
PLATTEVILLE    SUNNY     69  57  65 W5        29.91R
$$

WIZ056-057-062-063-064-067-068-031500-
SOUTH CENTRAL WISCONSIN

CITY           SKY/WX    TMP DP  RH WIND       PRES   REMARKS
REEDSBURG      SUNNY     68  50  53 W9        29.87R
BARABOO/DELLS  SUNNY     68  47  47 NW8       29.87R
LONE ROCK      NOT AVBL
MINERAL POINT  SUNNY     70  52  52 W5        29.90R
MADISON        SUNNY     71  52  50 NW6       29.86R
MIDDLETON      SUNNY     70  51  51 W9        29.88R
WATERTOWN      SUNNY     67  55  65 NW8       29.85R
MONROE         SUNNY     70  50  49 NW8       29.89R
JANESVILLE     SUNNY     72  54  53 NW8       29.86S
$$

WIZ051-052-058>065-066-070>072-031500-
SOUTHEAST WISCONSIN

CITY           SKY/WX    TMP DP  RH WIND       PRES   REMARKS
MILWAUKEE      MOSUNNY   72  52  49 W9        29.83S
WAUKESHA       SUNNY     68  54  60 W8        29.86
MILWAUKEE/TIMM NOT AVBL
RACINE         SUNNY     70  57  63 W9        29.85R
BURLINGTON     SUNNY     68  55  63 NW9       29.85R
KENOSHA        SUNNY     70  58  65 NW9       29.85R
FOND DU LAC    SUNNY     68  55  63 W10       29.83R
SHEBOYGAN      SUNNY     68  60  75 W8        29.81S
WEST BEND      SUNNY     64  54  68 W9        29.83S
JUNEAU         SUNNY     65  54  66 W7        29.86R
$$

LSZ147-162-031500-
LAKE SUPERIOR

STATION/POSITION TIME  TEMP    WIND        PRES    WAVE
                       AIR SEA DIR/SP/G            HT/PER
                 (UTC) (F)     (DEG/KT/KT) (MB)    (FT/S)
W MID LAKE BUOY  1250   58 55  270/ 14/ 16 1006.3R   1/ 3
DEVILS ISLAND    1300   58     250/ 17/ 21 1007.8R
PORT WING        1340   61     250/  9/ 13 1009.1R
SAXON HARBOR     1340   62                 1008.1R
$$

LMZ867-665-643>646-031500-
LAKE MICHIGAN

STATION/POSITION TIME  TEMP    WIND        PRES    WAVE
                       AIR SEA DIR/SP/G            HT/PER
                 (UTC) (F)     (DEG/KT/KT) (MB)    (FT/S)
CHAMBERS ISLAND  1300   63     250/  3/  7 1007.8R
S GREEN BAY BUOY 1300   61 66  270/ 10/ 10 1009.6
N MID LAKE BUOY  1250   64 68  300/ 12/ 16 1006.5R   2/ 3
NORTHPORT PIER   1300   65     300/  9/ 14 1007.5R
SISTER BAY       1318   67     320/ 11/ 13   N/A
ALGOMA LAKESHORE 1212           CALM  /  3   N/A
KEWAUNEE LAKESHO 1300   64     280/  5/  7 1007.9R
SHEBOYGAN LAKESH 1300   67     290/ 13/ 14 1009.2R
PORT WASHINGTON  1300   69     300/  5/ 10 1010.2R
ATWATER BUOY     1300   65 65  280/ 10/ 12 1011.2R
MILWAUKEE LAKESH 1300   68     300/  8/ 10   N/A
KENOSHA   LAKESH 1300   68     310/ 11/ 14 1009.8R
$$

TC  - TEMPERATURE IN CELSIUS
VSB - VISIBILITY IN STATUTE MILES
WCI - WIND CHILL INDEX
HX  - HEAT INDEX




USA.gov is the U.S. government's official web portal to all federal, state and local government web resources and services.